This demonstration page uses our WeatherBlox Daily Observations layout. Learn more.

Left ArrowRight Arrow

Hourly Observations for February 17, 2016

Temp ( °F °C ) Dew Point ( °F °C ) Humidity (%) Winds ( mph kmh ) Pressure ( in mb ) Visibility ( mi km ) Precip ( " mm )
12:51 am 00:51 Clear 54 12.2 22 -5.6 29 29 E 10 17 29.92 1013 10 16.0934 N/A
1:51 am 01:51 Clear 52 11.1 22 -5.6 31 31 E 9 15 29.93 1014 10 16.0934 N/A
2:51 am 02:51 Clear 50 10 23 -5 35 35 E 9 15 29.93 1014 10 16.0934 N/A
3:51 am 03:51 Clear 54 12.2 22 -5.6 29 29 E 9 15 29.91 1013 10 16.0934 N/A
4:51 am 04:51 Clear 54 12.2 22 -5.6 29 29 SE 16 26 29.92 1013 10 16.0934 N/A
5:51 am 05:51 Clear 53 11.7 22 -5.6 30 30 ESE 13 20 29.95 1014 10 16.0934 N/A
6:51 am 06:51 Clear 53 11.7 22 -5.6 30 30 SE 14 22 29.97 1015 10 16.0934 N/A
7:51 am 07:51 Sunny 53 11.7 23 -5 31 31 SE 16 26 30 1016 10 16.0934 N/A
8:51 am 08:51 Sunny 59 15 24 -4.4 26 26 ESE 18 30 30.02 1017 10 16.0934 N/A
9:51 am 09:51 Sunny 64 17.8 24 -4.4 22 22 SE 14 22 30.02 1017 10 16.0934 N/A
10:51 am 10:51 Sunny 71 21.7 24 -4.4 17 17 ESE 13 20 30.01 1016 10 16.0934 N/A
11:51 am 11:51 Sunny 74 23.3 23 -5 15 15 SE 10 17 29.96 1015 10 16.0934 N/A
12:51 pm 12:51 Sunny 79 26.1 22 -5.6 12 12 ESE 12 19 29.9 1013 10 16.0934 N/A
1:51 pm 13:51 Sunny 81 27.2 22 -5.6 11 11 ESE 16 26 29.85 1011 10 16.0934 N/A
2:51 pm 14:51 Sunny 83 28.3 22 -5.6 10 10 VRB 7 11 29.82 1010 10 16.0934 N/A
3:51 pm 15:51 Sunny 84 28.9 19 -7.2 9 9 N N/A 29.79 1009 10 16.0934 N/A
4:51 pm 16:51 Sunny 85 29.4 17 -8.3 8 8 N 3 6 29.77 1008 10 16.0934 N/A
5:51 pm 17:51 Sunny 81 27.2 20 -6.7 10 10 NE 3 6 29.77 1008 10 16.0934 N/A
6:51 pm 18:51 Clear 68 20 22 -5.6 17 17 WNW 6 9 29.8 1009 10 16.0934 N/A
7:51 pm 19:51 Clear 63 17.2 22 -5.6 21 21 N 5 7 29.82 1010 10 16.0934 N/A
8:51 pm 20:51 Clear 60 15.6 23 -5 24 24 E 7 11 29.83 1010 10 16.0934 N/A
9:51 pm 21:51 Clear 58 14.4 24 -4.4 27 27 W 5 7 29.84 1011 10 16.0934 N/A
10:51 pm 22:51 Clear 54 12.2 24 -4.4 31 31 SSE 9 15 29.84 1011 10 16.0934 N/A
11:51 pm 23:51 Clear 52 11.1 23 -5 32 32 E 5 7 29.85 1011 10 16.0934 N/A

Powered by AerisWeather